Reading, PA

9:16 PM EDT on September 22, 2017 (GMT -0400)
Reading Regional-Spaatz

Weather History for KRDG - May, 2013

Change the Weather History Date:

Sunday, May 26, 2013

  Actual Average Record
Temperature  
Mean Temperature 59 °F 64 °F  
Max Temperature 71 °F 75 °F 94 °F (1914)
Min Temperature 47 °F 53 °F 38 °F (1972)
Degree Days  
Heating Degree Days 6 3  
Month to date heating degree days 131 156  
Since 1 July heating degree days 4976 5354  
Cooling Degree Days 0 3  
Month to date cooling degree days 45 38  
Year to date cooling degree days 60 47  
Growing Degree Days 10 (Base 50)    
Moisture  
Dew Point 35 °F    
Average Humidity 43    
Maximum Humidity 61    
Minimum Humidity 25    
Precipitation  
Precipitation 0.00 in 0.18 in 1.84 in (1997)
Month to date precipitation 3.16 3.42  
Year to date precipitation 12.74 16.20  
Sea Level Pressure  
Sea Level Pressure 30.13 in    
Wind  
Wind Speed 12 mph (WNW)    
Max Wind Speed 24 mph    
Max Gust Speed 30 mph    
Visibility 10 miles    
Events      
T = Trace of Precipitation, MM = Missing Value Source: NWS Daily Summary

Daily Weather History Graph

Daily Weather History Graph

Search for Another Location

Airport or City:

Trip Planner

Search our weather history database for the weather conditions in past years. The results will help you decide how hot, cold, wet, or windy it might be!

Date:

Astronomy

May. 26, 2013 Rise Set
Actual Time 5:38 AM EDT 8:23 PM EDT
Civil Twilight 5:07 AM EDT 8:55 PM EDT
Nautical Twilight 4:26 AM EDT 9:35 PM EDT
Astronomical Twilight 3:41 AM EDT 10:21 PM EDT
Moon 10:08 PM EDT (5/26) 7:05 AM EDT (5/26)
Length of Visible Light 15h 48m
Length of Day
14h 44m
Waning Gibbous, 97% of the Moon is Illuminated
May 26
Waning Gibbous
May 31
Last Quarter
Jun 8
New
Jun 16
First Quarter
Jun 23
Full

Hourly Weather History & Observations

Time (EDT) Temp. Dew Point Humidity Pressure Visibility Wind Dir Wind Speed Gust Speed Precip Events Conditions
12:54 AM 52.0 °F 33.1 °F 49% 30.09 in 10.0 mi West 9.2 mph - N/A   Clear
1:54 AM 50.0 °F 34.0 °F 54% 30.09 in 10.0 mi WSW 9.2 mph - N/A   Clear
2:54 AM 48.9 °F 34.0 °F 56% 30.09 in 10.0 mi WSW 8.1 mph - N/A   Clear
3:54 AM 50.0 °F 34.0 °F 54% 30.09 in 10.0 mi West 11.5 mph - N/A   Clear
4:54 AM 50.0 °F 34.0 °F 54% 30.10 in 10.0 mi West 12.7 mph - N/A   Clear
5:54 AM 48.9 °F 35.1 °F 59% 30.12 in 10.0 mi West 11.5 mph - N/A   Clear
6:54 AM 51.1 °F 36.0 °F 56% 30.14 in 10.0 mi West 12.7 mph - N/A   Clear
7:54 AM 54.0 °F 36.0 °F 51% 30.14 in 10.0 mi WNW 13.8 mph - N/A   Clear
8:54 AM 57.0 °F 36.0 °F 45% 30.14 in 10.0 mi NW 16.1 mph 23.0 mph N/A   Clear
9:54 AM 60.1 °F 35.1 °F 39% 30.14 in 10.0 mi WNW 23.0 mph 29.9 mph N/A   Clear
10:54 AM 63.0 °F 35.1 °F 35% 30.13 in 10.0 mi WNW 18.4 mph 25.3 mph N/A   Clear
11:54 AM 64.0 °F 34.0 °F 33% 30.13 in 10.0 mi NW 11.5 mph 25.3 mph N/A   Clear
12:54 PM 64.9 °F 35.1 °F 33% 30.13 in 10.0 mi NW 11.5 mph 26.5 mph N/A   Clear
1:54 PM 68.0 °F 36.0 °F 31% 30.11 in 10.0 mi WNW 20.7 mph 29.9 mph N/A   Clear
2:54 PM 69.1 °F 35.1 °F 29% 30.10 in 10.0 mi WNW 15.0 mph 25.3 mph N/A   Clear
3:54 PM 70.0 °F 34.0 °F 27% 30.09 in 10.0 mi WNW 18.4 mph 26.5 mph N/A   Clear
4:54 PM 71.1 °F 33.1 °F 25% 30.09 in 10.0 mi NW 13.8 mph - N/A   Clear
5:54 PM 70.0 °F 33.1 °F 26% 30.09 in 10.0 mi NNW 16.1 mph 21.9 mph N/A   Clear
6:54 PM 69.1 °F 33.1 °F 26% 30.11 in 10.0 mi NW 10.4 mph - N/A   Clear
7:54 PM 66.0 °F 32.0 °F 28% 30.13 in 10.0 mi North 5.8 mph - N/A   Clear
8:54 PM 62.1 °F 33.1 °F 34% 30.15 in 10.0 mi North 4.6 mph - N/A   Clear
9:54 PM 57.9 °F 37.9 °F 47% 30.19 in 10.0 mi North 4.6 mph - N/A   Clear
10:54 PM 57.9 °F 35.1 °F 42% 30.21 in 10.0 mi Calm Calm - N/A   Clear
11:54 PM 55.0 °F 37.0 °F 51% 30.23 in 10.0 mi Calm Calm - N/A   Clear